Date,TemperatureHighF,TemperatureAvgF,TemperatureLowF,DewpointHighF,DewpointAvgF,DewpointLowF,HumidityHigh,HumidityAvg,HumidityLow,PressureMaxIn,PressureMinIn,WindSpeedMaxMPH,WindSpeedAvgMPH,GustSpeedMaxMPH,PrecipitationSumIn
2013-8-1,88.7,74.6,61.4,66.2,62.8,56.9,95,70,35,30.03,29.84,5,0,9,0.00
2013-8-2,81.9,72.1,64.9,68.0,63.9,58.0,89,76,57,29.96,29.83,16,1,21,0.00
2013-8-3,78.6,70.0,59.9,61.3,57.5,52.4,90,67,42,30.14,29.96,10,0,11,0.00
2013-8-4,81.0,70.9,55.1,60.3,57.4,52.5,93,65,45,30.15,29.99,8,1,15,0.00
2013-8-5,83.8,73.5,65.5,72.6,66.7,59.7,92,80,64,29.99,29.71,8,1,16,0.00
2013-8-6,89.7,77.2,67.2,73.1,69.0,65.7,96,78,52,29.84,29.71,16,1,16,0.00
2013-8-7,79.7,73.2,67.0,68.4,65.2,61.8,96,77,59,29.95,29.73,13,2,18,0.00
2013-8-8,81.1,70.6,59.0,63.8,60.4,55.1,88,72,52,29.98,29.90,9,0,11,0.00
2013-8-9,81.2,72.7,62.3,68.4,62.1,54.5,88,71,43,30.08,29.95,11,1,15,0.00
2013-8-10,83.9,71.3,55.9,63.4,58.8,54.1,96,67,45,30.16,30.03,6,0,9,0.00
2013-8-11,86.5,75.0,65.4,68.0,63.2,58.9,86,68,51,30.07,29.92,12,1,20,0.07
2013-8-12,82.5,71.9,62.7,68.5,63.3,57.4,96,77,48,30.00,29.92,13,1,17,0.13
2013-8-13,77.6,67.2,57.9,61.3,56.9,52.5,93,71,48,30.13,30.00,9,1,12,0.00
2013-8-14,76.2,66.4,54.1,55.8,51.4,48.0,88,61,39,30.18,30.08,8,0,11,0.00
2013-8-15,72.2,65.3,60.4,57.3,54.5,52.2,80,69,54,30.11,30.05,11,1,18,0.00
2013-8-16,78.3,66.9,55.5,58.0,54.2,51.7,88,66,43,30.16,30.09,9,1,13,0.00
2013-8-17,82.6,69.4,54.3,58.9,55.5,51.4,92,64,36,30.18,30.08,8,0,13,0.00
2013-8-18,83.1,71.1,58.8,62.1,58.1,54.6,87,66,44,30.13,30.01,9,1,14,0.00
2013-8-19,84.6,73.5,62.7,66.6,62.8,58.4,87,71,52,30.04,29.92,11,1,18,0.00
2013-8-20,90.0,79.5,70.6,71.1,66.6,62.5,79,66,50,29.94,29.85,16,3,24,0.00
2013-8-21,93.1,81.6,72.0,70.0,68.0,66.3,83,65,45,29.93,29.87,11,2,19,0.00
2013-8-22,83.9,77.2,72.1,70.8,68.4,66.8,86,75,62,30.02,29.91,8,1,10,0.00
2013-8-23,88.2,77.2,67.4,73.6,69.8,65.5,94,79,60,30.05,29.96,16,3,16,0.00
2013-8-24,90.8,81.1,71.2,74.1,70.1,67.6,89,71,51,30.07,29.97,15,2,18,0.00
2013-8-25,95.3,84.0,73.9,72.5,69.3,66.1,77,63,44,30.09,29.98,13,3,18,0.00
2013-8-26,97.5,85.5,72.7,74.4,70.7,68.3,88,64,40,30.03,29.87,13,2,17,0.00
2013-8-27,97.5,86.3,78.0,73.2,70.9,69.0,75,61,44,29.89,29.78,12,2,17,0.00
2013-8-28,98.3,85.0,73.1,71.3,68.7,66.1,79,60,38,29.92,29.84,8,0,12,0.00
2013-8-29,94.6,83.9,71.7,74.1,70.9,66.7,85,67,48,29.96,29.83,13,1,15,0.00
2013-8-30,102.5,86.3,73.1,78.4,72.5,67.3,89,67,33,29.84,29.70,7,1,14,0.00
2013-8-31,91.6,79.1,68.3,72.1,68.4,64.3,93,72,42,29.78,29.70,9,1,12,0.00